sat.trackr.live / text

‹ back to catalog

STARLINK-30431

NORAD 57852 · 2023-141N

PAYLOAD ACTIVE UNKNOWN

§ Identity

Operator
Country
US
Launch date
2023-09-12
Launch site
AFWTR
Launch vehicle
Mass (kg)
RCS (m²)

Purposes: comms

External: N2YO · Heavens-Above · Gunter

§ Orbital elements

Epoch: 2026-05-25T02:44:43.448928Z

Period
94.11 min
Inclination
53.1613°
Eccentricity
0.0001109
Mean motion
15.30196449 rev/d
Perigee alt
474.5 km
Apogee alt
476.0 km
Semi-major
6,853.4 km
B*
4.4484e-5
RAAN
288.8058°
Arg perigee
102.6936°
Mean anomaly
257.4189°
Rev number
15,202

§ Raw data

STARLINK-304311 57852U 23141N   26145.11439177  .00000958  00000+0  44484-4 0  99982 57852  53.1613 288.8058 0001109 102.6936 257.4189 15.30196449152023

JSON: /api/v1/satellites/57852 · /tle

For live sub-satellite position, see the globe view (requires WebGL).

§ Visibility from observer

Set your observer location to see the next 7 days of passes ≥ 10°. The values pass through the URL so the page stays shareable.

No JS? Fill the form by hand. The geolocation button needs JavaScript.